Zurück zum Katalog

PICOSAT 9

AktivWissenschaftLEO
NORAD 26930·PAYLOAD·🇺🇸 United States

Gestartet Sep 30, 2001 von Kodiak Launch Complex

Loading…

Nächste Überflüge (nächste 24 Stunden)

TLE

AktuellSource: Space-Track

Epoche: Sep 14, 2026, 07:15 UTC

1 26930U 01043B   26257.30243850  .00000013  00000-0  36329-4 0  9996
2 26930  67.0017 314.0644 0008342 236.2476 123.7832 14.31606528303482

Verfolge PICOSAT 9 in Echtzeit mit AllMySat

Download on the App Store